This is the latest recevied weather packets stored in our database for station/object WD7OO. If no packets are shown the sender has not sent any weather packets the latest 10 day(s).
| Time | Temp. | Humidity | Pressure | Rain* | Wind** | Luminosity | Snow |
|---|---|---|---|---|---|---|---|
| 1778019631 | 10.56° C | 55% | 1009.5 hPa | 0 mm | - | 44 W/m² | - |
| 1778019329 | 10.56° C | 52% | 1009.4 hPa | 0 mm | - | 41 W/m² | - |
| 1778019025 | 10.56° C | 57% | 1009.3 hPa | 0 mm | - | 51 W/m² | - |
| 1778018722 | 10.56° C | 54% | 1009.8 hPa | 0 mm | - | 53 W/m² | - |
| 1778018420 | 10.56° C | 52% | 1009.5 hPa | 0 mm | - | 53 W/m² | - |
| 1778018118 | 11.11° C | 55% | 1009.5 hPa | 0 mm | - | 59 W/m² | - |
| 1778017816 | 11.11° C | 55% | 1009.5 hPa | 0 mm | - | 74 W/m² | - |
| 1778017514 | 11.11° C | 53% | 1009.6 hPa | 0 mm | - | 89 W/m² | - |
| 1778017210 | 11.11° C | 51% | 1009.5 hPa | 0 mm | - | 93 W/m² | - |
| 1778016908 | 11.11° C | 53% | 1009.5 hPa | 0 mm | - | 119 W/m² | - |
| 1778016604 | 11.11° C | 50% | 1009.6 hPa | 0 mm | - | 129 W/m² | - |
| 1778016301 | 11.11° C | 53% | 1009.6 hPa | 0 mm | - | 117 W/m² | - |
| 1778015998 | 11.11° C | 52% | 1009.6 hPa | 0 mm | - | 111 W/m² | - |
| 1778015695 | 11.11° C | 54% | 1009.7 hPa | 0 mm | - | 109 W/m² | - |
| 1778015385 | 11.11° C | 54% | 1009.7 hPa | 0 mm | - | 119 W/m² | - |
| 1778015083 | 11.11° C | 52% | 1009.7 hPa | 0 mm | - | 117 W/m² | - |
| 1778014779 | 11.11° C | 52% | 1009.7 hPa | 0 mm | - | 132 W/m² | - |
| 1778014478 | 11.11° C | 54% | 1009.4 hPa | 0 mm | - | 121 W/m² | - |
| 1778014174 | 11.11° C | 51% | 1009.6 hPa | 0 mm | - | 142 W/m² | - |
| 1778013872 | 11.11° C | 50% | 1009.3 hPa | 0 mm | - | 155 W/m² | - |
| 1778013569 | 11.67° C | 51% | 1009.3 hPa | 0 mm | - | 153 W/m² | - |
| 1778013266 | 11.67° C | 52% | 1009.2 hPa | 0 mm | - | 159 W/m² | - |
| 1778012962 | 11.67° C | 52% | 1009.4 hPa | 0 mm | - | 158 W/m² | - |
| 1778012658 | 11.67° C | 53% | 1009.6 hPa | 0 mm | - | 163 W/m² | - |
| 1778012355 | 11.67° C | 54% | 1009.6 hPa | 0 mm | - | 188 W/m² | - |
* Rain latest hour (hover to see other rain measurements)
** Current wind speed in m/s (hover to see current wind gust speed)